Location: Gand�
(15.0971°N, 12.6564°W)
Time: 15:06:45
(UTC+00:00)

Cosmos 1125 Rocket - Pass Details

Date: 07 August 2020
Orbit: 757 x 781 km, 74.0° (Epoch: 20 September)

Event Time Altitude Azimuth Distance (km) Brightness Sun altitude
Exits shadow 04:18:54 54° 57° (ENE) 918 4.1 -31.0°
Drops below altitude 10° 04:23:10 10° 22° (NNE) 2,291 6.5 -30.1°
Sets 04:25:33 0° 19° (NNE) 3,220 7.4 -29.6°
